Rbgn^[z[y[W
メイン
   新天体発見情報
     Comet C/2020 F5 (MASTER)
投稿するにはまず登録を

フラット表示 前のトピック | 次のトピック
投稿者 スレッド
佐藤裕久
投稿日時: 2020-5-5 14:34
モデレータ
登録日: 2005-6-12
居住地: 日本
投稿: 2505
オンライン
Comet C/2020 F5 (MASTER)

V.M. Lipunov (Sternberg天文学研究所, Lomonosov Moscow州立大)は、3月28日UT、アルゼン
チン San Juan近郊にある "Mobile Astronomical System of the Telescope-Robots" (MASTER:
W92)の自動検出システム(0.40-m f/2.5 反射望遠鏡)により得た画像から小惑星センターへ
彗星発見を通報した。
小惑星センターのPCCP webpageに公表後、D. Denisenko (Sternberg天文学研究所、4月5.74-
5.76日UT、0.43-m f/6.8 反射望遠鏡, Siding Spring, NSW, 遠隔操作: コンパクトなコマと
285-345°にまたいでいる15"の扇のような尾が見える)らCCD位置観測者によって彗星状と観測
された。

彗星機能の追加報告は次の通り:

OC   Date        Reporter           Coma    Tail    PA          Exposures
Q62  2020-04-05  S. M. Tilley        6"                         25x60s
Q62  2020-04-05  E. Guido           10"     30"     290         22x60s
Q62  2020-04-05  D. Denisenko               15"     285
Q62  2020-04-05  H. Sato            18"     50"     290         6x60s
Q62  2020-04-05  M. Masek           17"     20"     305         23x120s
W88  2020-04-06  M. Suzuki          14"      9"     315
Q62  2020-04-06  R. Ligustri        13"     20"                 10x180s
Q62  2020-04-06  C. Jacques         17"     35"     10
W88  2020-04-07  N. Paul             6"      5"     327         9x50s

発見位置は次のとおり、

     2020 UT             R.A. (2000) Decl.       Mag.
     Mar. 28.24723   17 06 08.06   -77 28 13.4   15.8
          28.26190   17 06 08.60   -77 28 21.6   15.8
          28.27168   17 06 09.08   -77 28 27.3   15.8
     Apr.  5.33289   17 12 58.86   -78 45 21.6   16.1
           5.34939   17 12 58.89   -78 45 29.9   15.9
           5.35681   17 12 59.36   -78 45 34.4   16.6

MPCの放物線軌道要素と位置推算表は次のとおり、

Orbital elements:
    C/2020 F5 (MASTER)                                                          
T 2021 Mar. 22.93079 TT                                 Rudenko                 
q   4.3359270            (2000.0)            P               Q                  
                   Peri.  310.76295     +0.56791977     +0.81313294             
                   Node   350.64265     -0.28590489     +0.04951207             
e   1.0            Incl.   51.70157     -0.77183258     +0.57996842             
From 78 observations 2020 Mar. 16-Apr. 8.                                       
                                                                                
Ephemeris:
Date    TT    R. A. (2000) Decl.     Delta      r    Elong.  Phase   m1
2020 03 09    16 43 12.7 -74 17 11   5.2546  5.3136    88.0    10.8  15.9
...
2020 03 24    17 01 44.2 -76 46 47   5.0582  5.2465    95.4    10.9  15.8
...
2020 04 01    17 09 34.8 -78 04 19   4.9589  5.2113    99.1    10.9  15.7
...
2020 04 07    17 14 05.4 -79 00 53   4.8877  5.1852   101.8    10.9  15.7
2020 04 08    17 14 42.2 -79 10 09   4.8762  5.1809   102.2    10.9  15.7
2020 04 09    17 15 16.3 -79 19 22   4.8647  5.1766   102.6    10.9  15.6
...
2020 04 15    17 17 38.3 -80 13 30   4.7977  5.1509   105.1    10.8  15.6
...
2020 04 23    17 17 21.4 -81 21 46   4.7139  5.1170   108.1    10.8  15.5
...
2020 05 08    17 01 41.9 -83 11 20   4.5756  5.0549   112.9    10.6  15.4

(MPEC 2020-G73、CBET 4746)

フラット表示 前のトピック | 次のトピック

題名 投稿者 日時
 » Comet C/2020 F5 (MASTER) 佐藤裕久 2020-5-5 14:34

投稿するにはまず登録を
 
© 1999 Tsutomu Seki.